Location: Newark
(49.8969°N, 3.3422°E)
Time: 22:08:27
(UTC+00:00)

Vanguard 1 Rocket - Pass Details

Date: 29 January 2020
Orbit: 650 x 4226 km, 34.3° (Epoch: 19 February)

Event Time Altitude Azimuth Distance (km) Brightness Sun altitude
Rises 09:57:10 0° 238° (WSW) 3,893 10.7 16.9°
Reaches altitude 10° 09:59:38 10° 228° (SW) 3,237 10.4 17.1°
Maximum altitude 10:06:58 34° 166° (SSE) 2,710 11.5 17.7°
Drops below altitude 10° 10:19:46 10° 110° (ESE) 5,684 12.2 18.6°
Sets 10:25:55 0° 103° (ESE) 7,292 12.5 19.0°
